Regional Weather Roundup
Issued by NWS

Home | Current Version | Previous Version | Graphics & Text | Print | Product List | Glossary On
Versions: 1 2 3 4 5 6 7 8 9 10 11 12 13 14 15 16 17 18 19 20 21 22 23 24 25 26 27 28 29 30 31 32 33 34 35 36 37 38 39 40 41 42 43 44 45 46 47 48 49 50
000
ASUS43 KMPX 231310
RWRMN
WEATHER ROUNDUP FOR MINNESOTA
NATIONAL WEATHER SERVICE TWIN CITIES/CHANHASSEN MN
700 AM CST MON JAN 23 2017


NOTE: "FAIR" INDICATES FEW OR NO CLOUDS BELOW 12,000 FEET WITH NO
SIGNIFICANT WEATHER AND/OR OBSTRUCTIONS TO VISIBILITY. N/A MEANS
CURRENT SKY AND/OR WEATHER CONDITIONS ARE NOT AVAILABLE.

MNZ060>063-068>070-231400-
   Twin Cities Metro

CITY           SKY/WX    TMP DP  RH WIND       PRES   REMARKS
TWIN CITIES    DRIZZLE   34  31  88 W5        29.80F FOG     WCI  30
ST PAUL        MIX PCPN  33  33 100 W5        29.81S FOG     WCI  29
CRYSTAL        CLOUDY    33  30  88 W6        29.79F FOG     WCI  28
BLAINE         CLOUDY    36  36 100 W6        29.80S FOG
LAKEVILLE      CLOUDY    30  30 100 W7        29.80F FOG     WCI  23
EDEN PRAIRIE   LGT SNOW  33  31  92 W3        29.80S FOG
SOUTH ST PAUL  LGT RAIN  33  33  99 CALM      29.81S
LAKE ELMO      CLOUDY    34  32  93 W6        29.81R FOG     WCI  29
$$
MNZ001>005-007-008-013>017-022>024-027-028-231400-
   Northwest Minnesota

CITY           SKY/WX    TMP DP  RH WIND       PRES   REMARKS
BEMIDJI        CLOUDY    31  29  92 SW3       29.77S
HALLOCK        CLOUDY    32  30  93 SW6       29.76R WCI  26
ROSEAU         CLOUDY    30  27  86 SW3       29.75S
WARROAD        CLOUDY    30  27  86 SW6       29.75S FOG     WCI  24
THIEF RVR FALL CLOUDY    30  28  92 SW6       29.78S WCI  24
CROOKSTON      CLOUDY    30  28  93 W5        29.79F WCI  25
FOSSTON        CLOUDY    28  27  93 SW6       29.78S WCI  22
DETROIT LAKES  MOCLDY    32  30  93 W3        29.80S
MOORHEAD       CLOUDY    32  28  86 CALM      29.81F
PARK RAPIDS    CLOUDY    31  26  82 W6        29.77F WCI  25
MAHNOMEN       CLOUDY    30  28  94 SW5       29.78F WCI  25
$$
MNZ006-009>011-018-025>026-231400-
   North Central Minnesota

CITY           SKY/WX    TMP DP  RH WIND       PRES   REMARKS
BAUDETTE       CLOUDY    32  30  92 SW7       29.74S FOG     WCI  26
FLAG ISLAND    CLOUDY    32  30  93 S3        29.73S FOG
INTL FALLS     CLOUDY    33  31  92 W7        29.74S FOG     WCI  27
WASKISH        CLOUDY    32  30  93 SW5       29.76S FOG     WCI  27
BIG FORK       LGT SNOW  34  32  93 CALM      29.75S
LONGVILLE      CLOUDY    30  30 100 W5        29.77R FOG     WCI  25
GRAND RAPIDS   CLOUDY    33  32  96 NW6       29.77S FOG     WCI  28
CRANE LAKE     CLOUDY    30  30 100 CALM      29.76S
ORR            CLOUDY    32  30  93 CALM      29.72S
COOK           CLOUDY    34  34 100 W3        29.75S
WALKER         CLOUDY    30  28  94 W8        29.77S WCI  22
$$
MNZ012-019>021-037-231400-
   Northeast Minnesota

CITY           SKY/WX    TMP DP  RH WIND       PRES   REMARKS
DULUTH         DRIZZLE   34  33  96 NW9       29.73S WCI  27
ELY            SNOW      32  32 100 CALM      29.73S VSB 1/2
HIBBING        CLOUDY    31  31 100 CALM      29.74S
EVELETH        CLOUDY    34  33  98 W3        29.75S FOG
DULUTH HARBOR  CLOUDY    36  34  93 SW3       29.77S
TWO HARBORS    CLOUDY    37  34  87 NW3       29.72S
SILVER BAY     CLOUDY    36  34  93 CALM      29.71F
GRAND MARAIS     N/A     36  33  89 CALM      29.74S
G MARAIS ARPRT CLOUDY    30  27  86 CALM      29.71R
$$
MNZ029>031-032-039>041-046>048-054>057-064-231400-
   West Central Minnesota

CITY           SKY/WX    TMP DP  RH WIND       PRES   REMARKS
FERGUS FALLS   CLOUDY    32  30  93 NW8       29.84F WCI  25
WHEATON        CLOUDY    37  36  93 NW3       29.83F
MORRIS         CLOUDY    32  30  93 NW10      29.81S WCI  24
ALEXANDRIA     CLOUDY    31  28  89 NW7       29.80F WCI  24
ELBOW LAKE     CLOUDY    31  28  88 W9        29.81F FOG     WCI  23
WADENA         CLOUDY    28  28 100 W5        29.79S WCI  23
GLENWOOD       CLOUDY    30  28  93 NW9       29.80S WCI  22
APPLETON       CLOUDY    34  30  86 NW9       29.82S WCI  26
ORTONVILLE     CLOUDY    32  27  80 CALM      29.82F
MADISON        CLOUDY    36  34  93 CALM      29.83S
WILLMAR        CLOUDY    34  30  86 NW12      29.82F WCI  25
$$
MNZ033>034-036-042>043-049>051-058-059-231400-
   Central Minnesota

CITY           SKY/WX    TMP DP  RH WIND       PRES   REMARKS
ST CLOUD       CLOUDY    32  31  96 W8        29.79F FOG     WCI  25
SAUK CENTRE    CLOUDY    31  28  89 NW7       29.80F WCI  24
PAYNESVILLE    CLOUDY    32  32  99 NW9       29.81S WCI  24
AITKIN         CLOUDY    36  30  80 W3        29.76S FOG
PINE RIVER     CLOUDY    30  30 100 NW3       29.81F FOG
BRAINERD       CLOUDY    31  31 100 W8        29.78S FOG     WCI  23
STAPLES        CLOUDY    28  28 100 W7        29.79S WCI  21
LONG PRAIRIE   CLOUDY    30  28  93 CALM      29.79F
LITTLE FALLS   LGT SNOW  32  30  93 NW3       29.79S
LITCHFIELD     CLOUDY    34  30  86 NW7       29.81S WCI  28
BUFFALO        CLOUDY    32  30  93 W5        29.81S FOG     WCI  27
MAPLE LAKE     CLOUDY    33  32  96 W5        29.81S WCI  28
HUTCHINSON     CLOUDY    33  30  90 NW8       29.82S WCI  26
$$
MNZ037-044-045-052-053-231400-
   East Central Minnesota

CITY           SKY/WX    TMP DP  RH WIND       PRES   REMARKS
PRINCETON      CLOUDY    34  34 100 W3        29.79F FOG
MORA           CLOUDY    32  32 100 CALM      29.80R FOG
CAMBRIDGE      CLOUDY    36  34  93 W3        29.78S FOG
RUSH CITY      CLOUDY    32  32 100 CALM      29.79R FOG
MOOSE LAKE     CLOUDY    34  32  93 CALM      29.75R
HINCKLEY       CLOUDY    34  34 100 CALM      29.78R
CLOQUET        CLOUDY    34  34 100 W5        29.75S WCI  30
MCGREGOR       CLOUDY    32  32 100 CALM      29.77S
$$
MNZ071>073-080-081-089-090-097-098-231400-
   Southwest Minnesota

CITY           SKY/WX    TMP DP  RH WIND       PRES   REMARKS
MONTEVIDEO     CLOUDY    32  32 100 N7        29.84S WCI  26
GRANITE FALLS  CLOUDY    34  31  89 NW10      29.85R WCI  26
CANBY          CLOUDY    33  30  90 CALM      29.84S
MARSHALL       CLOUDY    32  29  88 NW8       29.83F WCI  25
REDWOOD FALLS  CLOUDY    33  27  78 NW7       29.82F WCI  27
OLIVIA         CLOUDY    34  30  86 NW7G16    29.81F WCI  28
PIPESTONE      CLOUDY    30  28  93 CALM      29.80F
WINDOM         CLOUDY    32  28  86 NW9       29.82F WCI  24
WORTHINGTON    CLOUDY    31  29  92 N9        29.81F WCI  23
JACKSON        CLOUDY    32  28  86 N8        29.82F WCI  25
TRACY          CLOUDY    32  31  94 NW6       29.83F WCI  27
SLAYTON        CLOUDY    30  29  94 N8        29.82F WCI  23
$$
MNZ065>067-074>077-082>085-091>093-231400-
   South Central Minnesota

CITY           SKY/WX    TMP DP  RH WIND       PRES   REMARKS
NEW ULM        CLOUDY    32  28  86 N6        29.82S WCI  26
ST JAMES       CLOUDY    32  28  86 NW10      29.84S WCI  24
FAIRMONT       CLOUDY    33  28  81 NW10      29.83S WCI  25
GLENCOE        CLOUDY    33  32  95 W12       29.81S WCI  25
OWATONNA       LGT SNOW  32  30  93 W5        29.81S WCI  27
WASECA         CLOUDY    32  32 100 W3        29.82S
ALBERT LEA     CLOUDY    32  32 100 W5        29.81R WCI  27
$$
MNZ078>079-086>088-094>096-231400-
   Southeast Minnesota

CITY           SKY/WX    TMP DP  RH WIND       PRES   REMARKS
ROCHESTER      CLOUDY    31  31 100 W10       29.79S FOG     WCI  22
RED WING       CLOUDY    34  32  93 W3        29.80S FOG
STANTON        LGT SNOW  33  32  95 W3        29.80S
DODGE CENTER   LGT SNOW  30  30 100 CALM      29.79S
WINONA         CLOUDY    34  32  93 NW3       29.81S
AUSTIN         CLOUDY    32  28  86 W7        29.80S WCI  26
PRESTON        CLOUDY    31  30  95 NW9       29.80R FOG     WCI  23
$$
ABBREVIATIONS USED IN REMARKS
   TC - TEMPERATURES IN CELSIUS
  WCI - WIND CHILL INDEX
   HX - HEAT INDEX
  VSB - VISIBILITY
$$



USA.gov is the U.S. government's official web portal to all federal, state and local government web resources and services.